[[{"header":{"parameterUnit":"m.s-1","parameterCategory":1,"la1":30.2991,"la2":30.254,"lo1":-89.0895,"lo2":-89.0444,"dy":0.0017,"dx":0.0017,"nx":28,"ny":28,"refTime":"2025-07-14T09:00:00:Z","depth":0,"parameterNumber":2,"parameterNumberName":"U-component_of_WINDS"},"data":[0,0,0,0,0,0,0,0,0,0,0,0,0,0,0,0,0,0,0,0,0,0,0,0,0,0,0,0,0,0,0,0,0,0,0,0,0,0,0,0,0,0,0,0,0,0,0,0,0,0,0,0,0,0,0,0,0,0,2.8805,2.8806,0,2.8925,2.8927,2.8928,2.8913,2.8911,2.8909,2.8907,2.9034,2.9039,2.9044,0,0,0,0,0,0,0,0,0,0,0,0,0,2.8563,2.8568,2.8804,2.8806,2.8807,2.8925,2.8927,2.8928,2.8913,2.8911,2.8909,2.8906,2.9032,2.9038,2.9044,0,0,0,0,0,0,0,0,0,0,0,0,0,2.8674,2.8569,2.8804,2.8814,2.8816,2.8925,2.8927,2.8929,2.8914,2.8911,2.8908,2.8905,2.903,2.9038,2.9045,2.9152,0,0,2.9069,2.9072,0,0,0,0,0,0,0,0,2.8668,2.8683,2.8811,2.8814,2.8816,2.8901,2.8888,2.9004,2.8915,2.8877,2.8907,2.8904,2.8992,2.9003,2.9032,2.9158,2.9164,2.907,2.9074,2.9078,2.908,0,0,0,0,0,0,0,2.866,2.8678,2.8852,2.8813,2.8816,2.8813,2.8826,2.891,2.895,2.888,2.8879,2.8894,2.8993,2.9025,2.9035,2.9166,2.907,2.9076,2.9081,2.9084,2.9385,2.9388,0,0,0,0,0,0,2.865,2.8672,2.8848,2.8856,2.8733,2.882,2.8834,2.8877,2.8949,2.8957,2.8896,2.8892,2.9013,2.9026,2.9039,2.9168,2.9078,2.9085,2.909,2.9381,2.9385,2.9389,0,0,0,0,0,0,2.8645,2.8666,2.8844,2.8764,2.8786,2.8827,2.8875,2.8881,2.8912,2.8961,2.8968,2.8921,2.9011,2.9028,2.9124,2.9173,2.9089,2.9096,2.9378,2.9383,2.9387,2.9428,0,0,0,0,0,0,2.8638,2.8664,2.8705,2.8765,2.879,2.8926,2.8879,2.8885,2.8925,2.8922,2.8986,2.8994,2.901,2.9112,2.9132,2.9182,2.9102,2.9373,2.938,2.9386,2.9423,2.9434,2.9443,0,0,0,0,0,2.8629,2.8712,2.8707,2.8728,2.8842,2.8928,2.8943,2.8959,2.8929,2.8971,2.9002,2.8992,2.9164,2.9122,2.9144,2.9197,2.937,2.9378,2.9385,2.9418,2.9432,2.9443,0,0,0,0,0,0,2.8658,2.872,2.8715,2.8819,2.8869,2.8926,2.8978,2.8974,2.9033,2.9027,2.9046,2.906,2.9157,2.9187,2.9139,2.9304,2.9263,2.9276,2.9281,2.9294,2.9304,2.9295,2.9108,0,0,0,0,0,2.8676,2.874,2.8792,2.8879,2.8904,2.8937,2.8975,2.8983,2.9035,2.9056,2.9095,2.9146,2.9212,2.9255,2.9318,2.9427,2.944,2.9474,2.9485,2.9493,2.9503,2.9562,2.9577,2.9413,2.9413,2.9413,0,0,2.8715,2.8757,2.8796,2.8886,2.8925,2.8991,2.8955,2.9027,2.9077,2.9068,2.916,2.919,2.9248,2.9351,2.9398,2.9379,2.9552,2.9503,2.9509,2.9515,2.9571,2.9587,2.96,2.9419,2.9418,2.9417,0,0,2.8819,2.8857,2.8934,2.8973,2.9033,2.9054,2.9072,2.913,2.9149,2.9242,2.9236,2.9296,2.941,2.9451,2.9487,2.9607,2.96,2.9627,2.9682,2.9739,2.9752,2.9763,2.9805,2.982,2.9637,2.9638,2.9638,0,2.8859,2.8959,2.8974,2.9047,2.9086,2.908,2.9158,2.9196,2.9273,2.9301,2.9278,2.9419,2.9459,2.957,2.9599,2.9629,2.965,2.962,2.9748,2.976,2.9771,2.9811,2.9827,2.964,2.964,2.964,2.9639,0,2.9005,2.9075,2.9129,2.9203,2.9249,2.9323,2.935,2.9395,2.9399,2.9423,2.9517,2.9564,2.9636,2.9664,2.9669,2.9776,2.9762,2.9744,2.9703,2.9789,2.9827,2.9843,2.9644,2.9643,2.9643,2.9642,0,0,2.913,2.9211,2.923,2.9263,2.9328,2.9382,2.9457,2.9527,2.9564,2.9618,2.9681,2.9777,2.976,2.9801,2.9811,2.9861,2.9952,2.9837,2.9839,2.9856,3.0071,3.0083,3.0101,2.9948,2.9951,2.9953,3.0066,0,2.924,2.9371,2.9386,2.9503,2.9567,2.9562,2.9627,2.9675,2.9699,2.9757,2.9785,2.9851,2.9825,2.9849,2.9899,2.993,2.9995,2.9923,3.0006,3.0009,2.999,3.0121,3.0134,3.0238,3.0081,3.0083,3.0085,0,2.9385,2.9441,2.9564,2.9619,2.9647,2.9705,2.9769,2.9825,2.9879,2.9893,2.9938,2.9942,3.0019,2.9976,3.0083,3.0033,3.0068,3.0089,3.0093,3.0101,3.0051,3.0131,3.0272,3.0287,3.0109,3.0107,3.0105,0,2.9462,2.9569,2.9656,2.9684,2.9752,2.9792,2.9822,2.9873,2.9913,2.997,2.9997,3.0063,3.0098,3.0149,3.0171,3.0137,3.0276,3.0235,3.029,3.0289,3.0318,3.0316,3.0466,3.0343,3.0343,3.0343,3.0343,0,2.9582,2.9657,2.9691,2.9744,2.9828,2.9846,2.9929,2.9957,3.0002,3.0061,3.0063,3.0118,3.0143,3.0203,3.0221,3.0306,3.0322,3.0336,3.0339,3.0335,3.0333,3.0357,3.035,3.0347,3.0346,3.0345,3.0345,0,2.9681,2.9708,2.9802,2.9857,2.9873,2.9932,2.998,3.0032,3.0056,3.0131,3.0149,3.0187,3.0257,3.0284,3.037,3.0381,3.0479,3.0478,3.0461,3.0461,3.0514,3.0508,3.0684,3.0707,3.0571,3.0572,3.0573,0,2.9755,2.9813,2.9874,2.9913,2.9944,3.0008,3.0049,3.0069,3.0112,3.0177,3.0221,3.029,3.0347,3.0459,3.0495,3.056,3.0559,3.0617,3.0569,3.0563,3.0559,3.0554,3.0559,3.0625,3.0626,3.0627,3.0628,0,2.9883,2.9893,2.9952,3.0016,3.0064,3.0116,3.0165,3.0198,3.0225,3.0274,3.0345,3.0388,3.0476,3.0545,3.0612,3.0643,3.0641,3.0643,3.0659,3.0654,3.0641,3.0647,3.0483,3.0639,3.0638,3.0637,3.0636,3.0636,2.9972,3.0022,3.0073,3.0138,3.0178,3.0224,3.0275,3.0305,3.0364,3.0436,3.0445,3.0521,3.0573,3.0662,3.0697,3.0757,3.0742,3.0765,3.0771,3.0776,3.0779,3.0633,3.0769,3.0769,3.0769,3.0769,3.0769,0,3.0098,3.0131,3.0191,3.026,3.0311,3.0304,3.0358,3.0402,3.0468,3.0517,3.0572,3.0654,3.072,3.0761,3.0828,3.0868,3.0868,3.0885,3.0881,3.0888,3.0789,3.0768,3.0883,3.0883,3.0883,3.0883,3.0883,3.0883,3.017,3.0254,3.0271,3.0375,3.0407,3.048,3.0512,3.0555,3.0593,3.0684,3.0739,3.0765,3.081,3.088,3.0941,3.0951,3.0975,3.0993,3.1001,3.0908,3.0896,3.0884,3.0864,3.0998,3.0998,3.1096,3.1096,3.1097]},{"header":{"parameterUnit":"m.s-1","parameterCategory":1,"la1":30.2991,"la2":30.254,"lo1":-89.0895,"lo2":-89.0444,"dy":0.0017,"dx":0.0017,"nx":28,"ny":28,"refTime":"2025-07-14T09:00:00:Z","depth":0,"parameterNumber":3,"parameterNumberName":"V-component_of_WINDS"},"data":[0,0,0,0,0,0,0,0,0,0,0,0,0,0,0,0,0,0,0,0,0,0,0,0,0,0,0,0,0,0,0,0,0,0,0,0,0,0,0,0,0,0,0,0,0,0,0,0,0,0,0,0,0,0,0,0,0,0,2.66,2.66,0,2.6621,2.6622,2.6622,2.6631,2.6631,2.6631,2.6631,2.6649,2.6649,2.665,0,0,0,0,0,0,0,0,0,0,0,0,0,2.6561,2.6561,2.66,2.66,2.6601,2.6621,2.6622,2.6622,2.6631,2.6631,2.6631,2.6631,2.6649,2.6649,2.665,0,0,0,0,0,0,0,0,0,0,0,0,0,2.6579,2.6562,2.66,2.6608,2.6609,2.6621,2.6622,2.6622,2.6631,2.6631,2.6631,2.6631,2.6649,2.6649,2.665,2.6656,0,0,2.6652,2.6653,0,0,0,0,0,0,0,0,2.6578,2.6581,2.6606,2.6607,2.6608,2.6624,2.6614,2.6633,2.6631,2.6622,2.6631,2.6631,2.664,2.6642,2.6646,2.6656,2.6657,2.6652,2.6653,2.6653,2.6653,0,0,0,0,0,0,0,2.6577,2.658,2.6608,2.6607,2.6608,2.6608,2.6611,2.6618,2.6631,2.6623,2.6624,2.6627,2.6641,2.6645,2.6646,2.6657,2.6652,2.6653,2.6654,2.6654,2.6669,2.6669,0,0,0,0,0,0,2.6575,2.6579,2.6608,2.6609,2.6593,2.6609,2.6612,2.6619,2.6631,2.6633,2.6627,2.6627,2.6644,2.6645,2.6647,2.6652,2.6653,2.6654,2.6654,2.6669,2.6669,2.6669,0,0,0,0,0,0,2.6574,2.6578,2.6607,2.6594,2.6598,2.661,2.6617,2.6619,2.6623,2.6634,2.6636,2.6629,2.6644,2.6646,2.6653,2.6652,2.6654,2.6655,2.6669,2.6669,2.6669,2.6663,0,0,0,0,0,0,2.6573,2.6577,2.6581,2.6594,2.6599,2.6614,2.6617,2.662,2.6625,2.6626,2.6636,2.6638,2.6644,2.6651,2.6653,2.6654,2.6656,2.6669,2.6669,2.6669,2.6663,2.6663,2.6662,0,0,0,0,0,2.6572,2.6579,2.6582,2.6585,2.6604,2.6614,2.6617,2.6624,2.6625,2.6628,2.6634,2.6638,2.6652,2.6652,2.6654,2.6655,2.6669,2.6669,2.6669,2.6663,2.6663,2.6662,0,0,0,0,0,0,2.6565,2.6581,2.6584,2.6596,2.6604,2.6616,2.662,2.6624,2.6631,2.6631,2.6639,2.6641,2.6647,2.6651,2.6651,2.6658,2.6661,2.6661,2.6656,2.6655,2.6655,2.6653,2.6656,0,0,0,0,0,2.6565,2.6574,2.6586,2.6595,2.6599,2.6609,2.6614,2.6619,2.6627,2.663,2.6637,2.6643,2.6648,2.6652,2.6658,2.6664,2.6664,2.6664,2.6664,2.6664,2.6664,2.6663,2.6663,2.6669,2.6669,2.6669,0,0,2.6565,2.6575,2.658,2.6594,2.6601,2.6608,2.6612,2.6619,2.6624,2.6631,2.6637,2.6642,2.6649,2.6655,2.6657,2.6659,2.6662,2.6663,2.6663,2.6663,2.6663,2.6663,2.6662,2.6669,2.6669,2.6669,0,0,2.6569,2.6578,2.6585,2.6591,2.6601,2.6607,2.6608,2.6619,2.6623,2.663,2.6634,2.6638,2.6649,2.6652,2.6656,2.6656,2.6659,2.6658,2.6655,2.6655,2.6654,2.6654,2.6652,2.6651,2.6658,2.6658,2.6658,0,2.6567,2.6579,2.6588,2.6594,2.6599,2.6606,2.6611,2.6616,2.6627,2.6629,2.6631,2.6642,2.6647,2.6652,2.6652,2.6655,2.6655,2.6657,2.6654,2.6654,2.6653,2.6651,2.6651,2.6658,2.6658,2.6658,2.6658,0,2.6575,2.6583,2.6587,2.6598,2.6603,2.6609,2.6616,2.662,2.6623,2.6628,2.6632,2.6639,2.6645,2.6646,2.665,2.665,2.6651,2.6653,2.6655,2.6652,2.6651,2.665,2.6657,2.6657,2.6657,2.6657,0,0,2.6577,2.659,2.6592,2.6595,2.6605,2.661,2.6614,2.6621,2.6622,2.6629,2.6631,2.6638,2.6639,2.6643,2.6647,2.6647,2.6643,2.6648,2.6649,2.6646,2.6641,2.6638,2.6638,2.6645,2.6645,2.6645,2.664,0,2.6581,2.6591,2.6597,2.6604,2.6609,2.6614,2.6617,2.6622,2.6625,2.6629,2.6632,2.6636,2.6639,2.664,2.6641,2.6644,2.6642,2.6644,2.6645,2.6645,2.6642,2.6637,2.6635,2.663,2.6639,2.6639,2.6639,0,2.6587,2.6593,2.66,2.6606,2.6609,2.6612,2.6616,2.662,2.6624,2.6626,2.6629,2.6632,2.6634,2.6636,2.6637,2.6638,2.6638,2.6639,2.6639,2.6639,2.6641,2.6635,2.6629,2.6628,2.6638,2.6638,2.6638,0,2.6585,2.6595,2.66,2.6602,2.661,2.6612,2.6615,2.6619,2.6621,2.6624,2.6625,2.6628,2.663,2.6631,2.6633,2.6635,2.6633,2.6636,2.6633,2.6633,2.6632,2.6632,2.6625,2.6634,2.6634,2.6634,2.6634,0,2.6588,2.6591,2.6598,2.6601,2.6604,2.661,2.6612,2.6615,2.6618,2.6619,2.6623,2.6624,2.6628,2.6629,2.6631,2.6629,2.663,2.663,2.6631,2.663,2.6629,2.663,2.663,2.6634,2.6634,2.6634,2.6634,0,2.6587,2.6592,2.6597,2.6603,2.6604,2.6606,2.661,2.6612,2.6614,2.6616,2.6616,2.662,2.6621,2.6623,2.6625,2.6626,2.6623,2.6625,2.6622,2.6622,2.6618,2.6618,2.661,2.6608,2.662,2.662,2.662,0,2.6588,2.6591,2.6596,2.6598,2.6601,2.6604,2.6605,2.6609,2.6611,2.6614,2.6614,2.6615,2.6616,2.6616,2.6617,2.6617,2.6618,2.6615,2.6618,2.6616,2.6616,2.6615,2.6614,2.6614,2.6614,2.6614,2.6614,0,2.6588,2.659,2.6593,2.6596,2.6598,2.6601,2.6603,2.6604,2.6608,2.6608,2.6609,2.661,2.661,2.661,2.661,2.661,2.6612,2.6613,2.6612,2.661,2.6608,2.6607,2.6619,2.6613,2.6613,2.6613,2.6613,2.6613,2.6587,2.6589,2.6592,2.6595,2.6596,2.6598,2.6599,2.6601,2.6602,2.6603,2.6605,2.6604,2.6605,2.6604,2.6605,2.6603,2.6604,2.6603,2.6603,2.6602,2.6601,2.6609,2.6603,2.6603,2.6603,2.6603,2.6603,0,2.6586,2.6588,2.659,2.6593,2.6594,2.6596,2.6598,2.6598,2.6598,2.6599,2.6599,2.6598,2.6597,2.6597,2.6596,2.6594,2.6594,2.6593,2.6593,2.6592,2.6601,2.6601,2.6593,2.6593,2.6593,2.6593,2.6593,2.6593,2.6586,2.6588,2.6589,2.659,2.6592,2.6592,2.6592,2.6592,2.6593,2.6592,2.6591,2.6591,2.6591,2.6589,2.6587,2.6587,2.6585,2.6584,2.6583,2.6591,2.6592,2.6593,2.6593,2.6584,2.6584,2.6575,2.6575,2.6575]}]]